Retour au catalogue

DELTA 1 DEB

ActifSSO
NORAD 21282·DEBRIS·🇺🇸 United States

Lancé Jun 12, 1975 depuis Vandenberg Space Force Base

Loading…

Prochains Passages (prochaines 24 heures)

TLE

FraisSource: Space-Track

Époque: Sep 14, 2026, 14:09 UTC

1 21282U 75052T   26257.58979128  .00000057  00000-0  21923-3 0  9997
2 21282  99.8236 186.4019 0100878  74.5474 100.0629 13.24866919709708

Suivez DELTA 1 DEB en temps réel avec AllMySat

Download on the App Store